TimeEDT,TemperatureF,Dew PointF,Humidity,Sea Level PressureIn,VisibilityMPH,Wind Direction,Wind SpeedMPH,Gust SpeedMPH,PrecipitationIn,Events,Conditions,WindDirDegrees,DateUTC
12:54 AM,57.9,55.9,93,30.00,7.0,East,16.1,-,0.22,Rain,Light Rain,100,2013-06-11 04:54:00
1:54 AM,57.0,55.0,93,29.98,4.0,East,19.6,-,0.05,Rain,Heavy Rain,100,2013-06-11 05:54:00
2:06 AM,57.2,55.4,94,29.96,2.5,East,18.4,-,0.09,Rain,Heavy Rain,90,2013-06-11 06:06:00
2:10 AM,57.2,55.4,94,29.95,3.0,East,19.6,-,0.11,Rain,Heavy Rain,90,2013-06-11 06:10:00
2:33 AM,57.2,55.4,94,29.93,7.0,East,19.6,-,0.14,Rain,Rain,90,2013-06-11 06:33:00
2:54 AM,57.0,55.0,93,29.92,4.0,East,18.4,-,0.18,Rain,Heavy Rain,80,2013-06-11 06:54:00
3:24 AM,57.2,55.4,94,29.90,2.0,East,19.6,-,0.16,Rain,Heavy Rain,80,2013-06-11 07:24:00
3:39 AM,57.2,55.4,94,29.89,4.0,East,19.6,-,0.25,Rain,Rain,80,2013-06-11 07:39:00
3:54 AM,57.0,55.0,93,29.88,7.0,East,18.4,-,0.27,Rain,Light Rain,80,2013-06-11 07:54:00
4:13 AM,57.2,55.4,94,29.86,2.5,ENE,19.6,-,0.08,Rain,Heavy Rain,70,2013-06-11 08:13:00
4:22 AM,57.2,55.4,94,29.86,5.0,East,17.3,-,0.10,Rain,Light Rain,80,2013-06-11 08:22:00
4:54 AM,57.0,55.0,93,29.85,6.0,ENE,18.4,-,0.17,Rain,Rain,70,2013-06-11 08:54:00
5:54 AM,57.0,55.9,96,29.81,4.0,ENE,13.8,-,0.11,Rain,Rain,70,2013-06-11 09:54:00
6:39 AM,57.2,55.4,94,29.78,1.5,ENE,11.5,-,0.02,Rain,Light Rain,60,2013-06-11 10:39:00
6:54 AM,57.9,57.0,97,29.78,0.5,ENE,9.2,-,0.04,Rain,Rain,70,2013-06-11 10:54:00
7:54 AM,57.9,57.0,97,29.74,0.5,NE,6.9,-,0.06,Rain,Light Rain,40,2013-06-11 11:54:00
8:54 AM,59.0,57.9,96,29.72,0.2,North,8.1,-,0.01,,Overcast,10,2013-06-11 12:54:00
9:54 AM,60.1,57.9,93,29.70,0.2,NW,5.8,-,N/A,,Overcast,320,2013-06-11 13:54:00
9:59 AM,60.8,57.2,88,29.70,1.5,WNW,8.1,-,N/A,,Overcast,300,2013-06-11 13:59:00
10:54 AM,60.1,57.0,90,29.71,1.5,NNW,10.4,-,N/A,,Overcast,330,2013-06-11 14:54:00
11:54 AM,61.0,57.0,87,29.70,1.5,NW,6.9,-,N/A,,Overcast,310,2013-06-11 15:54:00
12:04 PM,60.8,57.2,88,29.70,10.0,WNW,9.2,-,N/A,,Overcast,290,2013-06-11 16:04:00
12:54 PM,62.1,57.0,84,29.70,10.0,WNW,9.2,-,N/A,,Overcast,300,2013-06-11 16:54:00
1:09 PM,62.6,55.4,77,29.70,10.0,West,8.1,-,N/A,,Overcast,280,2013-06-11 17:09:00
1:54 PM,63.0,57.0,81,29.69,10.0,NNW,8.1,-,N/A,,Overcast,330,2013-06-11 17:54:00
2:48 PM,62.6,55.4,77,29.68,10.0,NNW,4.6,-,N/A,,Overcast,340,2013-06-11 18:48:00
2:54 PM,63.0,55.9,78,29.68,10.0,West,4.6,-,N/A,,Overcast,280,2013-06-11 18:54:00
3:54 PM,63.0,57.0,81,29.65,10.0,NNW,5.8,-,N/A,,Overcast,330,2013-06-11 19:54:00
4:54 PM,63.0,55.9,78,29.64,10.0,North,5.8,-,N/A,,Overcast,350,2013-06-11 20:54:00
5:42 PM,60.8,57.2,88,29.61,10.0,East,9.2,-,N/A,,Mostly Cloudy,80,2013-06-11 21:42:00
5:46 PM,60.8,57.2,88,29.61,10.0,ENE,8.1,-,N/A,,Overcast,70,2013-06-11 21:46:00
5:54 PM,59.0,55.9,90,29.61,10.0,East,12.7,-,N/A,,Overcast,80,2013-06-11 21:54:00
6:54 PM,57.0,55.0,93,29.60,5.0,ENE,12.7,-,0.01,Rain,Rain,70,2013-06-11 22:54:00
7:15 PM,57.2,55.4,94,29.59,2.0,ENE,12.7,-,0.14,Rain,Heavy Rain,60,2013-06-11 23:15:00
7:26 PM,55.4,53.6,94,29.59,3.0,ENE,15.0,-,0.19,Rain,Heavy Rain,70,2013-06-11 23:26:00
7:51 PM,55.4,53.6,94,29.59,4.0,NE,9.2,-,0.26,Rain,Rain,40,2013-06-11 23:51:00
7:54 PM,55.9,54.0,93,29.59,3.0,NE,11.5,-,0.28,Rain,Heavy Rain,40,2013-06-11 23:54:00
7:58 PM,55.4,53.6,94,29.59,2.5,NE,12.7,-,0.04,Rain,Heavy Rain,40,2013-06-11 23:58:00
8:02 PM,55.4,53.6,94,29.60,2.5,North,6.9,17.3,0.08,Rain,Heavy Rain,10,2013-06-12 00:02:00
8:09 PM,55.4,53.6,94,29.61,1.8,Variable,3.5,-,0.14,Rain,Heavy Rain,0,2013-06-12 00:09:00
8:11 PM,55.4,53.6,94,29.61,2.0,Variable,3.5,-,0.16,Rain,Heavy Rain,0,2013-06-12 00:11:00
8:46 PM,55.4,53.6,94,29.60,4.0,NE,4.6,-,0.18,Rain,Light Rain,50,2013-06-12 00:46:00
8:54 PM,55.9,54.0,93,29.60,5.0,Calm,Calm,-,0.18,Rain,Light Rain,0,2013-06-12 00:54:00
9:54 PM,55.9,54.0,93,29.61,5.0,East,3.5,-,0.02,,Overcast,80,2013-06-12 01:54:00
10:54 PM,57.0,54.0,89,29.60,10.0,Calm,Calm,-,N/A,,Overcast,0,2013-06-12 02:54:00
11:49 PM,55.4,53.6,94,29.60,10.0,SSE,5.8,-,N/A,,Overcast,160,2013-06-12 03:49:00
11:54 PM,55.9,55.0,97,29.60,10.0,South,5.8,-,N/A,,Overcast,170,2013-06-12 03:54:00